Palm Springs, CA

5:42 PM PDT on April 22, 2018 (GMT -0700)
Palm Springs International

Weather History for KPSP - October, 2012

Change the Weather History Date:

Sunday, October 14, 2012

  Actual Average Record
Temperature  
Mean Temperature 80 °F 76 °F  
Max Temperature 95 °F 90 °F 110 °F (1991)
Min Temperature 65 °F 63 °F 43 °F (1928)
Degree Days  
Heating Degree Days 0 0  
Month to date heating degree days 0 0  
Since 1 July heating degree days 0 0  
Cooling Degree Days 15 11  
Month to date cooling degree days 220 190  
Year to date cooling degree days 4407 3916  
Growing Degree Days 30 (Base 50)    
Moisture  
Dew Point 42 °F    
Average Humidity 28    
Maximum Humidity 42    
Minimum Humidity 14    
Precipitation  
Precipitation 0.00 in 0.01 in 0.26 in (1910)
Month to date precipitation 0.00 0.15  
Year to date precipitation 1.82 4.04  
Since 1 July precipitation 1.03  
Snow  
Snow 0.00 in - - ()
Month to date snowfall 0.0  
Year to date snowfall 0.0  
Snow Depth 0.00 in    
Sea Level Pressure  
Sea Level Pressure 29.99 in    
Wind  
Wind Speed 6 mph (NW)    
Max Wind Speed 13 mph    
Max Gust Speed 15 mph    
Visibility 10 miles    
Events      
T = Trace of Precipitation, MM = Missing Value Source: NWS Daily Summary

Daily Weather History Graph

Daily Weather History Graph

Search for Another Location

Airport or City:

Astronomy

Oct. 14, 2012 Rise Set
Actual Time 6:50 AM PDT 6:12 PM PDT
Civil Twilight 6:25 AM PDT 6:37 PM PDT
Nautical Twilight 5:56 AM PDT 7:06 PM PDT
Astronomical Twilight 5:27 AM PDT 7:35 PM PDT
Moon 5:55 AM PDT (10/14) 5:36 PM PDT (10/14)
Length of Visible Light 12h 12m
Length of Day
11h 21m
Waning Crescent, 1% of the Moon is Illuminated
Oct 14
Waning Crescent
Oct 15
New
Oct 21
First Quarter
Oct 29
Full
Nov 6
Last Quarter

Hourly Weather History & Observations

Time (PDT) Temp. Dew Point Humidity Pressure Visibility Wind Dir Wind Speed Gust Speed Precip Events Conditions
12:53 AM 70.0 °F 44.1 °F 39% 30.03 in 10.0 mi NNW 10.4 mph - N/A   Clear
1:53 AM 70.0 °F 43.0 °F 38% 30.03 in 10.0 mi NNW 8.1 mph - N/A   Clear
2:53 AM 69.1 °F 43.0 °F 39% 30.03 in 10.0 mi NW 6.9 mph - N/A   Clear
3:53 AM 69.1 °F 42.1 °F 38% 30.03 in 10.0 mi NW 6.9 mph - N/A   Clear
4:53 AM 66.9 °F 42.1 °F 40% 30.03 in 10.0 mi NNW 8.1 mph - N/A   Clear
5:53 AM 66.0 °F 41.0 °F 40% 30.04 in 10.0 mi NNW 9.2 mph - N/A   Clear
6:53 AM 66.0 °F 39.9 °F 38% 30.06 in 10.0 mi NW 8.1 mph - N/A   Clear
7:53 AM 71.1 °F 42.1 °F 35% 30.07 in 10.0 mi NNW 8.1 mph - N/A   Clear
8:53 AM 78.1 °F 42.1 °F 28% 30.07 in 10.0 mi Variable 3.5 mph - N/A   Clear
9:53 AM 88.0 °F 43.0 °F 21% 30.06 in 10.0 mi Variable 3.5 mph - N/A   Clear
10:53 AM 91.0 °F 39.9 °F 17% 30.04 in 10.0 mi North 8.1 mph - N/A   Clear
11:53 AM 93.0 °F 39.9 °F 16% 30.03 in 10.0 mi North 6.9 mph - N/A   Clear
12:53 PM 95.0 °F 39.9 °F 15% 30.00 in 10.0 mi NNW 6.9 mph - N/A   Clear
1:53 PM 93.9 °F 39.9 °F 15% 29.96 in 10.0 mi ESE 4.6 mph - N/A   Clear
2:53 PM 93.9 °F 39.9 °F 15% 29.94 in 10.0 mi SW 5.8 mph - N/A   Clear
3:53 PM 95.0 °F 39.9 °F 15% 29.93 in 10.0 mi Calm Calm - N/A   Clear
4:53 PM 93.9 °F 39.0 °F 15% 29.92 in 10.0 mi SW 4.6 mph - N/A   Clear
5:53 PM 91.0 °F 42.1 °F 18% 29.91 in 10.0 mi West 3.5 mph - N/A   Clear
6:53 PM 87.1 °F 44.1 °F 22% 29.92 in 10.0 mi WNW 4.6 mph - N/A   Clear
7:53 PM 84.0 °F 45.0 °F 25% 29.92 in 10.0 mi West 3.5 mph - N/A   Clear
8:53 PM 82.9 °F 42.1 °F 24% 29.94 in 10.0 mi West 3.5 mph - N/A   Clear
9:53 PM 81.0 °F 39.9 °F 23% 29.95 in 10.0 mi Calm Calm - N/A   Clear
10:53 PM 81.0 °F 42.1 °F 25% 29.95 in 10.0 mi WNW 6.9 mph - N/A   Clear
11:53 PM 79.0 °F 41.0 °F 26% 29.94 in 10.0 mi Calm Calm - N/A   Clear